Weather Roundup
Issued by NWS Corpus Christi, TX

Home | Current Version | Previous Version | Text Only | Print | Product List | Glossary On
Versions: 1 2 3 4 5 6 7 8 9 10 11 12 13 14 15 16 17 18 19 20 21 22 23 24 25 26 27 28 29 30 31 32 33 34 35 36 37 38 39 40 41 42 43 44 45 46 47 48 49 50
000
ASUS44 KCRP 230610
HRRCRP

SOUTH TEXAS REGIONAL WEATHER ROUNDUP
NATIONAL WEATHER SERVICE CORPUS CHRISTI TX
100 AM CDT THU OCT 23 2014


TXZ229>244-230700-
...CORPUS CHRISTI AREA OBSERVATIONS...

CITY           SKY/WX    TMP DP  RH WIND       PRES   REMARKS
CORPUS CHRISTI PTCLDY    72  64  76 E5        30.05F
NAS CORPUS CHR CLEAR     74  66  76 E9        30.04F
ROCKPORT       CLEAR     74  63  68 E10       30.05F
KINGSVILLE NAS CLEAR     65  64  97 N5        30.05F
ALICE          CLEAR     66  63  90 N5        30.06S
FALFURRIAS     CLEAR     66  64  93 CALM      30.05S
$$

...VICTORIA AREA OBSERVATIONS...

CITY           SKY/WX    TMP DP  RH WIND       PRES   REMARKS
VICTORIA       CLEAR     62  59  90 NE3       30.08S
BEEVILLE       FAIR      67  63  85 E5        30.06F
PLEASANTON     CLOUDY    71  62  72 SE3       30.09R
SAN ANTONIO    CLOUDY    72  58  61 SE8       30.10S
$$

...LAREDO AREA OBSERVATIONS...

CITY           SKY/WX    TMP DP  RH WIND       PRES   REMARKS
LAREDO         CLOUDY    74  65  73 SE5       30.09F
COTULLA        CLOUDY    74  63  68 SE8       30.08S
DEL RIO        PTCLDY    65  64  97 CALM      30.09F FOG
MCALLEN        CLOUDY    74  67  78 NE5       30.04F
HEBBRONVILLE   PTCLDY    68  64  86 CALM      30.08S
$$

...OTHER TEXAS OBSERVATIONS...

CITY           SKY/WX    TMP DP  RH WIND       PRES   REMARKS
BROWNSVILLE    CLEAR     73  68  84 NE3       30.02F
HOUSTON        PTCLDY    63  58  83 E8        30.08S
COL. STATION   CLOUDY    67  58  72 E5        30.09F
AUSTIN         LGT RAIN  68  61  78 CALM      30.09S
WACO           CLOUDY    66  58  75 SE5       30.09F
FORT WORTH     CLOUDY    70  52  52 SE12      30.10S
WICHITA FALLS  CLOUDY    64  62  93 NE3       30.09F
LUBBOCK        MOCLDY    58  56  93 S10       30.14R FOG
EL PASO        CLEAR     63  55  75 CALM      30.13S
$$

...MARINE OBSERVATIONS...

STATION/POSITION TIME  SKY/WX   TEMP    WIND        PRES    VSBY  WAVE   SWELL
                                AIR SEA DIR/SP/G                  HT/PER HT/PER
                 (UTC)          (F)     (DEG/KT/KT) (MB)    (MI)  (FT/S) (FT/S)
PORT ARANSAS     0600            76 78   50/ 15/ 17 1017.8F
BUOY 90 E PORT A 0600            76 81   50/ 12/ 14 1017.6F         4/ 7   3/ 7
BUOY 45 SE BAFFI 0600            78 81   70/ 14/ 17 1016.1F         5/ 7   3/ 7
BUOY 200 E PT IS 0600            80 81   70/ 16/ 17 1014.9F         6/ 7   3/ 7
BUOY 15 E GALVES 0600            75 78   60/ 16/ 17 1017.4F         2/ 6   2/ 6
$$



USA.gov is the U.S. government's official web portal to all federal, state and local government web resources and services.